SCP
0 0 0 0 0 0 0 0 0 0 0 0 0 0 0 0 0 0 0 0 0 0 0 0 0 0 0 0 0 0 0 0 0 0 0 0 0 0 0 0 0 0 0
0 0 0 0 0 0 0 0 0 0 0 0 0 0 0 0 0 0 0 0 0 0 0 0 0 0 0 0 0 0 0 0 0 0 0 0 0 0 0 0 0 0 0
0 0 0 1 1 1 0 0 0 0 0 0 0 0 0 0 0 0 0 0 0 0 0 0 0 0 0 0 0 0 0 0 0 0 0 0 0 0 0 0 0 0 0
0 0 0 1 1 1 1 1 0 0 0 0 0 0 0 0 0 0 0 0 0 0 0 0 0 0 0 0 0 0 0 0 0 -0 -0 0 0 0 0 0 0 0 0
0 0 1 1 1 1 1 1 1 0 0 0 0 0 0 0 0 0 0 0 0 0 0 0 0 0 0 0 0 0 0 0 0 0 0 0 0 0 0 0 0 0 0
0 0 1 1 1 1 1 1 1 0 0 0 0 0 0 0 0 0 0 0 0 0 0 0 0 0 0 0 0 0 0 0 0 0 0 0 0 0 0 0 0 0 0
0 0 1 1 1 1 1 1 1 1 0 0 0 0 0 0 0 0 0 0 0 0 0 0 0 0 0 0 0 0 0 0 0 0 0 0 0 0 0 0 0 0 0
0 0 0 1 1 1 1 1 1 1 1 0 0 0 0 0 0 0 0 0 0 0 0 0 0 0 0 0 0 0 0 0 0 0 0 0 0 0 0 0 0 0 0
0 0 0 0 0 1 1 1 1 1 1 0 0 0 0 0 0 0 0 0 0 0 0 0 0 0 0 0 0 0 0 0 0 0 0 0 0 0 0 0 0 0 0
0 0 0 0 0 0 0 0 0 0 0 0 0 0 0 0 0 0 0 0 0 0 0 0 0 0 0 0 0 0 0 0 0 0 0 0 0 0 0 0 0 0 0
0 0 0 0 0 0 0 0 0 0 0 0 0 0 0 0 0 0 0 0 0 0 0 0 0 0 0 0 0 0 0 0 0 0 0 0 0 0 0 0 0 0 0
0 0 0 0 0 0 0 0 0 0 0 0 0 0 0 0 0 0 0 0 0 0 0 0 0 0 0 0 0 0 0 0 0 0 0 0 0 0 0 0 0 0 0
0 0 0 0 0 0 0 0 0 0 0 0 0 0 0 0 0 0 0 0 0 0 0 0 0 0 0 0 0 0 0 0 0 0 0 0 0 0 0 0 0 0 0
0 0 0 0 0 0 0 0 0 0 0 0 0 0 0 0 0 0 0 0 0 0 0 0 0 0 0 0 0 0 0 0 0 0 0 0 0 0 0 0 0 0 0
0 0 0 0 0 0 0 0 0 0 0 0 0 0 0 0 0 0 0 0 0 0 0 0 0 0 0 0 0 0 0 0 0 0 0 0 0 0 0 0 0 0 0
0 0 0 0 0 0 0 0 0 0 0 0 0 0 0 0 0 0 0 0 0 0 0 0 0 0 0 0 0 0 0 0 0 0 0 0 0 0 0 0 0 0 0
0 0 0 0 0 0 0 0 0 0 0 0 0 0 0 0 0 0 0 0 0 0 0 0 0 0 0 0 0 0 0 0 0 0 0 0 0 0 0 0 0 0 0
0 0 0 0 0 0 0 0 0 0 0 0 0 0 0 0 0 0 0 0 0 0 0 0 0 0 0 0 0 0 0 0 0 0 0 0 0 0 0 0 0 0 0
0 0 0 0 0 0 0 0 0 0 0 0 0 0 0 0 0 0 0 0 0 0 0 0 0 0 0 0 0 0 0 0 0 0 0 0 0 0 0 0 0 0 0
0 0 0 0 0 0 0 0 0 0 0 0 0 0 0 0 0 0 0 0 0 0 0 0 0 0 0 0 0 0 0 0 0 0 0 0 0 0 0 0 0 0 0
0 0 0 0 0 0 0 0 0 0 0 0 0 0 0 0 0 0 0 0 0 0 0 0 0 0 0 0 0 0 0 0 0 0 0 0 0 0 0 0 0 0 0
0 0 0 0 0 0 0 0 0 0 0 0 0 0 0 0 0 0 0 0 0 0 0 0 0 0 0 0 0 0 0 0 0 0 0 0 0 0 0 0 0 0 0
0 0 0 0 0 0 0 0 0 0 0 0 0 0 0 0 0 0 0 0 0 0 0 0 0 0 0 0 0 0 0 0 0 0 0 0 0 0 0 0 0 0 0
0 0 0 0 0 0 0 0 0 0 0 0 0 0 0 0 0 0 0 0 0 0 0 0 0 0 0 0 0 0 0 0 0 0 0 0 0 0 0 0 0 0 0
0 0 0 0 0 0 0 0 0 0 0 0 0 0 0 0 0 0 0 0 0 0 0 0 0 0 0 0 0 0 0 0 0 0 0 0 0 0 0 0 0 0 0
0 0 0 0 0 0 0 0 0 0 0 0 0 0 0 0 0 0 0 0 0 0 0 0 0 0 0 0 0 0 0 0 0 0 0 0 0 0 0 0 0 0 0
Wind_Speed
4 8 11 10 9 10 10 10 10 11 11 11 11 11 11 10 10 10 10 10 10 10 10 10 10 10 10 11 11 12 12 12 13 13 12 11 12 12 11 11 12 9 13
4 8 11 10 9 10 10 9 9 10 10 10 11 11 11 10 10 10 10 10 10 10 10 10 10 10 10 11 11 11 11 11 10 10 9 8 9 11 12 12 11 7 11
5 8 9 9 9 9 9 9 9 10 10 10 11 11 11 10 10 10 10 10 9 9 9 9 10 10 10 10 10 10 9 8 7 5 5 4 6 10 11 10 10 10 10
5 7 7 8 8 9 9 9 9 10 10 10 10 11 11 10 10 10 10 9 9 9 9 9 9 10 10 9 9 8 6 4 2 1 1 4 5 9 9 9 9 9 9
5 6 7 9 8 8 8 9 9 9 10 10 10 10 10 10 10 10 9 9 9 8 8 9 9 9 9 8 7 6 4 2 2 3 2 5 5 8 8 8 8 7 7
4 5 7 8 7 7 8 8 8 9 9 9 9 9 10 10 10 10 9 9 9 8 9 10 9 9 8 7 6 5 3 2 4 1 3 5 4 7 7 7 6 6 6
3 4 6 8 8 7 8 8 9 9 9 9 9 10 10 10 10 10 9 9 9 9 10 9 9 8 7 6 5 4 3 3 4 0 3 4 5 7 6 5 5 4 4
3 3 4 7 8 8 7 8 8 9 9 9 9 9 10 10 10 10 10 10 10 10 10 9 9 8 7 6 5 4 3 4 3 1 3 4 6 6 5 3 3 3 3
3 2 2 3 6 8 8 8 8 8 8 8 9 9 8 8 9 10 10 10 10 10 10 9 9 8 7 6 5 4 4 5 4 1 3 3 5 5 3 2 2 1 1
2 1 1 2 3 4 5 8 8 8 8 9 8 8 8 9 9 9 9 9 10 9 9 9 9 8 7 6 5 5 4 5 4 2 2 4 6 4 3 2 1 0 0
2 1 0 1 2 3 4 7 7 8 8 8 7 8 8 5 6 7 9 9 10 9 9 9 9 8 7 5 6 6 4 3 4 1 2 6 6 4 2 2 2 2 2
3 2 1 1 1 2 3 3 4 5 5 6 5 6 5 5 5 7 9 10 10 10 9 9 9 8 5 3 4 5 3 5 3 1 3 8 6 5 4 3 3 3 3
2 2 2 2 1 1 1 2 2 2 4 5 6 6 5 4 4 4 4 5 6 7 6 6 6 4 4 4 3 4 4 4 2 1 4 8 7 6 5 4 4 4 4
3 3 2 2 2 2 2 2 2 2 3 3 4 6 4 3 3 4 4 5 5 4 4 4 4 5 5 4 4 4 4 2 1 1 4 7 6 6 5 5 5 5 5
3 3 3 2 3 2 2 2 3 3 3 4 4 5 5 4 4 4 4 4 5 4 5 4 4 5 4 4 4 4 4 3 3 2 3 7 6 5 6 6 6 7 7
3 3 2 2 3 3 2 2 2 2 3 3 3 4 5 4 4 4 4 4 4 4 4 4 5 4 3 3 3 4 3 3 2 2 3 4 7 6 6 7 8 8 8
3 3 2 3 3 3 3 3 2 2 2 2 2 3 4 4 4 4 3 4 4 4 4 3 4 3 3 2 3 3 2 2 2 2 3 3 4 6 7 8 8 9 9
3 3 3 3 2 3 3 2 1 1 1 1 1 1 2 3 4 3 3 3 3 3 3 3 3 3 3 2 2 2 2 2 3 3 2 3 3 3 5 8 8 9 9
3 3 3 3 3 2 2 1 1 1 1 1 2 1 1 1 3 3 3 3 3 3 3 3 3 3 3 3 2 2 2 2 3 3 3 3 3 3 3 5 7 8 8
2 2 2 3 2 2 1 1 1 1 1 1 2 2 1 1 2 2 2 3 2 2 3 3 3 2 2 2 2 2 3 3 3 3 3 2 2 3 3 3 4 5 8
2 3 2 2 2 1 1 1 1 1 1 1 1 2 2 1 1 2 2 3 3 2 3 3 2 3 2 1 1 1 3 3 3 2 2 2 3 3 3 3 3 3 4
2 3 3 2 2 2 1 1 1 1 1 1 1 2 2 2 1 1 2 2 2 2 3 3 2 2 2 2 2 1 1 2 3 4 3 3 3 2 3 3 3 3 3
2 2 3 2 2 2 1 0 1 1 1 1 1 1 1 2 2 1 1 1 2 3 3 3 3 3 2 2 2 2 2 3 2 2 4 3 3 2 3 3 4 4 3
2 2 2 2 1 1 1 1 1 1 1 1 1 1 2 2 2 2 1 1 2 2 2 3 3 3 3 3 2 2 2 1 1 3 3 3 3 3 3 3 4 4 4
2 2 2 2 1 1 1 1 2 1 2 2 2 2 2 2 1 1 1 1 1 1 1 2 2 3 3 3 2 2 2 1 2 2 3 3 3 4 4 4 4 4 4
2 2 2 2 2 1 1 2 2 2 2 3 2 2 1 1 1 1 1 1 1 1 1 2 2 2 2 2 2 2 2 2 2 2 4 4 4 4 4 4 4 4 3
Wind_Direction
100 131 141 146 151 151 149 149 150 149 149 148 147 145 140 137 132 129 125 121 122 121 118 113 108 103 100 97 94 90 88 88 88 85 81 79 78 74 68 68 70 68 70
102 127 141 146 154 156 153 152 151 152 152 153 152 150 149 146 141 138 136 132 130 127 123 120 114 108 105 102 99 98 96 95 96 96 89 76 77 76 70 67 72 72 71
90 119 140 145 153 157 157 154 154 156 157 159 158 157 157 153 149 145 143 141 137 134 129 123 119 113 107 103 103 102 104 108 113 121 117 105 90 85 80 77 76 73 71
88 115 136 141 155 157 159 160 159 162 163 163 164 164 163 160 156 151 149 146 141 137 131 125 121 115 110 109 109 109 113 124 141 225 136 110 97 92 87 81 76 73 69
84 108 124 137 153 162 160 162 165 168 169 169 168 170 168 167 162 158 155 150 144 139 133 129 125 121 119 118 118 118 126 172 277 288 78 90 89 97 89 81 77 74 71
65 98 124 138 150 162 164 164 168 171 173 174 174 174 174 172 167 163 158 150 145 140 139 137 134 132 131 131 132 136 159 253 296 282 96 99 103 103 94 87 81 78 73
43 85 131 148 154 163 171 173 175 177 178 178 180 181 180 175 170 165 159 151 149 146 146 146 144 144 143 145 149 158 196 277 285 25 88 97 111 112 103 95 85 78 75
22 65 136 156 163 166 171 176 180 182 183 182 183 185 184 180 173 169 163 160 159 158 154 153 152 153 152 154 161 175 224 276 286 112 98 105 124 123 113 101 89 78 68
5 49 121 163 171 173 175 180 187 187 187 185 184 186 184 182 176 171 168 166 167 167 164 161 164 164 165 168 176 193 240 275 298 253 126 120 136 133 125 119 114 91 63
344 30 139 178 179 180 181 183 188 191 190 187 185 183 183 180 178 174 171 173 174 173 170 170 174 175 175 180 189 207 242 280 266 221 134 143 152 148 149 160 172 215 354
323 339 326 203 194 192 193 188 188 190 190 187 186 182 178 181 179 177 180 177 177 176 176 178 181 180 177 188 197 208 233 254 251 200 129 144 157 166 182 201 218 236 252
299 318 342 313 238 223 204 182 191 192 185 189 190 183 187 186 184 181 177 178 181 181 181 185 188 181 178 188 197 200 225 245 249 160 137 154 169 187 203 218 235 245 248
305 317 319 319 288 247 211 184 190 192 184 194 198 188 187 187 175 169 160 171 180 183 183 186 187 190 197 191 182 196 223 235 225 161 153 166 178 197 213 226 239 248 252
296 284 284 294 289 260 234 205 196 194 188 192 198 191 184 183 176 167 165 171 178 184 183 179 189 199 204 200 188 202 222 230 223 158 162 171 182 202 220 232 240 250 256
280 277 263 268 273 265 252 225 210 200 196 196 194 193 185 179 180 176 174 174 182 180 177 184 193 200 204 204 198 205 219 226 219 182 160 179 186 206 225 238 247 253 256
284 285 272 262 262 264 259 239 219 208 199 189 191 193 184 182 183 181 178 176 180 176 178 186 195 198 200 197 204 209 218 223 221 187 167 188 195 203 224 238 249 255 259
291 296 281 258 252 253 257 253 231 206 196 184 189 195 186 181 179 182 179 178 179 176 180 186 195 192 195 199 213 215 213 221 233 215 186 183 195 209 221 237 248 255 260
303 304 302 286 267 252 249 247 222 204 181 172 156 168 181 172 170 175 176 182 180 177 177 185 187 188 195 196 212 227 225 222 234 232 207 192 192 200 220 237 247 255 260
305 302 304 294 274 265 254 235 209 175 186 165 152 144 170 170 168 170 177 182 174 178 182 191 181 185 195 197 213 224 230 231 231 233 220 209 203 197 200 222 236 250 262
308 301 302 302 296 285 275 213 159 128 185 154 154 159 174 167 164 167 172 175 169 170 179 180 183 190 196 196 220 235 237 234 228 217 219 218 211 206 202 218 226 243 253
354 350 338 321 323 320 311 231 187 162 162 148 156 156 162 161 160 159 170 172 170 176 183 178 178 192 202 180 178 251 261 243 229 215 214 225 226 218 217 220 222 237 248
360 351 336 333 320 308 285 248 193 161 158 151 142 144 154 153 151 165 155 172 168 172 182 185 182 182 188 173 169 191 263 269 246 237 226 224 223 219 229 234 233 236 245
355 346 330 320 303 306 305 263 106 118 105 94 108 102 113 121 124 127 130 148 170 176 186 194 189 185 194 198 175 174 193 236 281 248 229 223 226 237 237 239 240 240 246
352 343 334 336 320 297 268 162 165 172 153 167 148 130 107 95 96 101 116 143 163 175 184 194 188 196 192 205 209 210 209 191 221 272 260 234 244 248 244 255 250 244 243
7 348 341 338 330 288 219 165 168 160 152 145 128 125 121 100 91 99 120 124 132 156 176 193 194 200 204 208 207 213 234 248 229 233 262 261 254 243 242 245 248 246 246
19 14 1 4 26 24 111 146 149 148 145 140 137 146 128 130 124 105 123 146 150 131 160 195 196 198 214 214 218 211 210 219 232 248 261 263 261 251 244 240 241 242 243